Regional Weather Roundup
Issued by NWS

Home | Current Version | Previous Version | Text Only | Print | Product List | Glossary Off
Versions: 1 2 3 4 5 6 7 8 9 10 11 12 13 14 15 16 17 18 19 20 21 22 23 24 25 26 27 28 29 30 31 32 33 34 35 36 37 38 39 40 41 42 43 44 45 46 47 48 49 50

000
ASUS43 KDMX 010904
RWRIA

WEATHER ROUNDUP FOR IOWA
NATIONAL WEATHER SERVICE DES MOINES IA
  ISSUED BY NWS QUAD CITIES IA IL
300 AM CST SUN MAR 01 2015

NOTE: "FAIR" INDICATES FEW OR NO CLOUDS BELOW 12,000 FEET WITH NO
SIGNIFICANT WEATHER AND/OR OBSTRUCTIONS TO VISIBILITY.

* - THESE STATIONS ARE NOT NWS STATIONS...THUS NOT UNDER NWS
QUALITY CONTROL.  THEY ALSO DO NOT REPORT WEATHER SUCH
AS PRECIPITATION OR FOG.

IAZ001>003-012>014-020>022-031>034-043>046-011000-
   NORTHWEST IOWA

CITY           SKY/WX    TMP DP  RH WIND       PRES   REMARKS
CARROLL *      PTCLDY    12  10  92 SW5       30.31F WCI   4
CHEROKEE *     MOSUNNY   13  12  97 S6        30.29F WCI   4
DENNISON *     CLEAR     14  14 100 CALM      30.29F
LE MARS *      CLEAR     12  10  92 S7        30.29F WCI   2
ORANGE CITY *  CLEAR     12  10  92 S7        30.26F WCI   2
SHELDON *      PTCLDY    14  12  92 S10       30.24F WCI   1
SIOUX CITY     PTCLDY    16  11  80 S6        30.30F WCI   7
SPENCER        CLEAR     13   9  84 SW12      30.26F WCI  -1
$$

IAZ055>058-069>071-079>083-090>094-011000-
   SOUTHWEST IOWA

CITY           SKY/WX    TMP DP  RH WIND       PRES   REMARKS
ATLANTIC *     CLOUDY    21  16  79 SW7       30.33F WCI  13
AUDUBON *      PTCLDY    19  16  86 SW5       30.31F WCI  13
CLARINDA *     CLOUDY    21  19  93 CALM      30.37F
COUNCIL BLFS * CLOUDY    21  18  86 SW8       30.31F WCI  12
CRESTON *      CLOUDY    19  16  86 W8        30.32F WCI   9
HARLAN *       CLOUDY    21  21 100 SW7       30.35F WCI  13
LAMONI         CLOUDY    19  17  92 CALM      30.34F
RED OAK *      CLOUDY    21  18  86 SW3       30.35F
SHENANDOAH *   CLOUDY    21  18  86 CALM      30.36F
$$

IAZ047>049-059>061-072>074-084-011000-
   CENTRAL IOWA

CITY           SKY/WX    TMP DP  RH WIND       PRES   REMARKS
AMES           CLOUDY    19  15  84 S6        30.34F WCI  11
ANKENY *       CLOUDY    19  16  86 S6        30.35F WCI  11
BOONE *        CLOUDY    19  16  86 SW5       30.31F WCI  13
CHARITON *     CLOUDY    18  16  93 SE5       30.35F WCI  11
DES MOINES     FLURRIES  21  16  81 S5        30.35F WCI  15
GRINNELL *     LGT SNOW  15  13  92 CALM      30.36F
KNOXVILLE *    CLOUDY    18  14  86 S6        30.35F WCI   9
MARSHALLTOWN   CLOUDY    16  13  88 S7        30.34F WCI   6
NEWTON *       CLOUDY    16  14  93 SE6       30.35F WCI   7
PELLA *        MOCLDY    17  17  99 S3        30.38F
PERRY *          N/A     21  18  89 SW5       30.33F WCI  15
$$

IAZ004>006-015-016-023>025-035-036-011000-
   NORTH CENTRAL IOWA

CITY           SKY/WX    TMP DP  RH WIND       PRES   REMARKS
ALGONA *       CLOUDY     9   7  92 S13       30.30F WCI  -7
CLARION *      MOCLDY    10  10 100 S8        30.32S WCI  -1
ESTHERVILLE    CLEAR     12  10  92 S13       30.25F WCI  -3
FORT DODGE *   PTCLDY    14  10  85 S6        30.32F WCI   5
MASON CITY     CLEAR      7   4  87 S6        30.32F FOG     WCI  -3
FOREST CITY *  FAIR       7   1  78 CALM      30.29F
WEBSTER CITY * CLEAR     10  10 100 S7        30.31S FOG     WCI   0
IOWA FALLS *   CLOUDY    16  13  89 S8        30.33F FOG     WCI   5
$$

IAZ007>011-017>019-026>030-037>042-050>054-066-011000-
   NORTHEAST IOWA

CITY           SKY/WX    TMP DP  RH WIND       PRES   REMARKS
CEDAR RAPIDS   FOG       11  10  96 SE3       30.37F VSB 1/2
CHARLES CITY * CLOUDY    12  10  92 S9        30.33F WCI   0
CLINTON *      PTCLDY     7   1  78 E3        30.42F
DECORAH *      CLOUDY    12   9  85 VRB7G14   30.32F WCI   2
DUBUQUE        CLOUDY    12   9  87 SW3       30.36F FOG
MONTICELLO *   CLOUDY    10  10 100 CALM      30.39F
OELWEIN *      CLOUDY    12   9  85 S7        30.35F FOG     WCI   2
WATERLOO       CLOUDY    15  13  91 S8        30.35F WCI   4
$$

IAZ064-065-067-068-078-011000-
   EAST CENTRAL IOWA

CITY           SKY/WX    TMP DP  RH WIND       PRES   REMARKS
DAVENPORT      CLOUDY     7   3  84 CALM      30.39F FOG
IOWA CITY      CLOUDY    12  10  92 CALM      30.41F FOG
MT. PLEASANT * PTCLDY     6   3  88 N3        30.38F FOG
MUSCATINE *    FOG        3   0  85 CALM      30.42F VSB<1/4
QUAD CITIES    MOCLDY     5   0  79 CALM      30.40F
$$

IAZ062-063-075>077-085>089-095>099-011000-
   SOUTHEAST IOWA

CITY           SKY/WX    TMP DP  RH WIND       PRES   REMARKS
BURLINGTON     CLOUDY    20  17  88 CALM      30.38F
FAIRFIELD *    CLOUDY    10   7  85 CALM      30.39S HAZE
FORT MADISON * CLOUDY    19  18  93 CALM      30.38F
KEOKUK *       CLOUDY    21  19  93 CALM      30.37F
OSKALOOSA *    LGT SNOW  13  11  92 CALM      30.38F
CENTERVILLE *  CLOUDY    14  14 100 CALM      30.37F
OTTUMWA        CLOUDY    13  11  92 CALM      30.38F FOG
WASHINGTON *   FOG       10  10 100 CALM      30.39F VSB 1/2
$$

ABBREVIATIONS USED IN REMARKS
   TC - TEMPERATURES IN CELSIUS
  WCI - WIND CHILL INDEX
   HX - HEAT INDEX
  VSB - VISIBILITY
$$


USA.gov is the U.S. government's official web portal to all federal, state and local government web resources and services.